Home > Weather > Ontario > Past weeks

Flag for USA Past Weather in Ontario, California, USA — Yesterday and Last 2 Weeks

Now
69 °F

Passing clouds.


Feels Like: 69 °F
Forecast: 56 / 80 °F
Wind: No wind

Location: Ontario International Airport

Current Time: May 27, 2016 at 11:22:50 AM

Latest Report: May 27, 2016 at 10:53 AM


Visibility: 8 mi

Pressure: 29.89 "Hg

Humidity: 55%

Dew Point: 52 °F

Location of OntarioLocation

Past Weather in Ontario — Graph

°F

Ontario Temperature Yesterday

Maximum temperature yesterday: 76 °F (at 3:53 PM)
Minimum temperature yesterday: 53 °F (at 3:53 AM)
Average temperature yesterday: 63 °F

High & Low Weather Summary for the Past Weeks

 TemperatureHumidityPressure
High91 °F (May 12, 2:53 PM)90% (May 13, 5:53 AM)30.08 "Hg (May 13, 5:53 AM)
Low51 °F (May 22, 5:53 AM)29% (May 13, 3:53 PM)29.77 "Hg (May 19, 5:53 PM)
Average64 °F64%29.93 "Hg
* Reported May 12 9:53 AM — May 27 9:53 AM, Ontario, Weather by CustomWeather, © 2016

Note: Actual official high and low records may vary slightly from our data, if they occured in-between our weather recording intervals... More about our weather records

Advertising

Ontario Weather History for the Previous 24 Hours

Scroll right to see more
 ConditionsComfort  
Time TempWeatherWind HumidityBarometerVisibility
9:53 AM
Fri, May 27
66 °FPassing clouds.8 mph61%29.90 "Hg7 mi
8:53 AM63 °FScattered clouds.7 mph68%29.92 "Hg6 mi
7:53 AM61 °FHaze.3 mph72%29.92 "Hg6 mi
6:53 AM57 °FHaze.No wind83%29.93 "Hg5 mi
5:53 AM54 °FPassing clouds.3 mph86%29.93 "Hg10 mi
4:53 AM54 °FClear.5 mph86%29.92 "Hg10 mi
3:53 AM55 °FClear.5 mph83%29.92 "Hg10 mi
2:53 AM56 °FClear.3 mph84%29.93 "Hg10 mi
1:53 AM56 °FClear.3 mph84%29.95 "Hg10 mi
12:53 AM58 °FClear.5 mph78%29.95 "Hg10 mi
11:53 PM
Thu, May 26
59 °FClear.5 mph75%29.96 "Hg10 mi
10:53 PM61 °FClear.7 mph70%29.95 "Hg10 mi
9:53 PM62 °FClear.7 mph70%29.96 "Hg10 mi
8:53 PM63 °FPassing clouds.8 mph68%29.94 "Hg10 mi
7:53 PM65 °FPassing clouds.12 mph63%29.94 "Hg10 mi
6:53 PM69 °FPassing clouds.12 mph53%29.93 "Hg10 mi
5:53 PM72 °FPassing clouds.14 mph48%29.92 "Hg10 mi
4:53 PM74 °FPassing clouds.15 mph45%29.92 "Hg10 mi
3:53 PM76 °FPassing clouds.12 mph40%29.94 "Hg10 mi
2:53 PM74 °FPassing clouds.10 mph41%29.96 "Hg10 mi
1:53 PM73 °FPassing clouds.10 mph41%29.98 "Hg10 mi
12:53 PM72 °FPassing clouds.9 mph43%30.00 "Hg10 mi
11:53 AM69 °FPassing clouds.9 mph45%30.01 "Hg10 mi
Weather by CustomWeather, © 2016

See weather overviewHow to use our weather pages